Volver al catálogo

OPS 7641

ActivoMilitarGEO
NORAD 14930·PAYLOAD·🇺🇸 United States

Lanzado Apr 14, 1984 desde Cape Canaveral Space Force Station

Loading…

TLE

ActualizadoSource: Space-Track

Época: Sep 14, 2026, 06:21 UTC

1 14930U 84037A   26257.26476425  .00000012  00000-0  00000-0 0  9990
2 14930  10.0386 315.3306 0009892 282.5230  83.2620  0.98680028 25872

Sigue OPS 7641 en tiempo real con AllMySat

Download on the App Store